When you browse on this site, cookies collect data to enhance your experience and personalize the content and advertising you see.
Visit our Privacy Policy to learn more. By continuing to use the site, you agree to this use of cookies and data.
  • In Schweiz
  • Länderverzeichnis
  • Für 7 Tage
  • Wassertemperatur
  • Satellitenkarten
  • Wetterkarte
  • Widgets
  • user-avatar
    Anmelden

    Stündliche Wetter Kozub

    Heute, 20 Juni, Donnerstag

    Zeit Temperatur Niederschläge Wind Luftdruck Luftfeuchtigkeit
    00:00 +21°C° 0 mm 2 m/S 743 mmHg 77%
    01:00 +20°C° 0 mm 3 m/S 743 mmHg 77%
    02:00 +20°C° 0.1 mm 3 m/S 742 mmHg 79%
    03:00 +19°C° 0.1 mm 2 m/S 742 mmHg 81%
    04:00 +19°C° 0.1 mm 2 m/S 742 mmHg 84%
    05:00 +20°C° 0.2 mm 2 m/S 742 mmHg 81%
    06:00 +21°C° 0.2 mm 2 m/S 743 mmHg 77%
    07:00 +23°C° 0 mm 2 m/S 743 mmHg 74%
    08:00 +25°C° 0.1 mm 3 m/S 743 mmHg 68%
    09:00 +26°C° 0.1 mm 3 m/S 743 mmHg 62%
    10:00 +28°C° 0.1 mm 3 m/S 743 mmHg 56%
    11:00 +29°C° 0 mm 3 m/S 743 mmHg 53%
    12:00 +29°C° 0 mm 3 m/S 743 mmHg 50%
    13:00 +30°C° 0 mm 2 m/S 743 mmHg 47%
    14:00 +30°C° 0 mm 2 m/S 742 mmHg 45%
    15:00 +31°C° 0 mm 1 m/S 742 mmHg 44%
    16:00 +31°C° 0 mm 1 m/S 742 mmHg 42%
    17:00 +30°C° 0 mm 1 m/S 742 mmHg 47%
    18:00 +28°C° 0 mm 1 m/S 742 mmHg 52%
    19:00 +27°C° 0 mm 1 m/S 742 mmHg 57%
    20:00 +25°C° 0.8 mm 2 m/S 743 mmHg 67%
    21:00 +21°C° 0.8 mm 3 m/S 743 mmHg 78%
    22:00 +19°C° 0.8 mm 3 m/S 743 mmHg 88%
    23:00 +19°C° 0.1 mm 3 m/S 744 mmHg 89%

    Morgen, 21 Juni, Freitag

    Zeit Temperatur Niederschläge Wind Luftdruck Luftfeuchtigkeit
    00:00 +18°C° 0.1 mm 2 m/S 744 mmHg 91%
    01:00 +19°C° 0.1 mm 1 m/S 744 mmHg 92%
    02:00 +19°C° 0 mm 1 m/S 744 mmHg 91%
    03:00 +18°C° 0 mm 2 m/S 744 mmHg 91%
    04:00 +17°C° 0 mm 2 m/S 744 mmHg 90%
    05:00 +19°C° 0 mm 2 m/S 745 mmHg 87%
    06:00 +20°C° 0 mm 3 m/S 745 mmHg 84%
    07:00 +21°C° 0 mm 3 m/S 746 mmHg 80%
    08:00 +22°C° 0 mm 3 m/S 746 mmHg 74%
    09:00 +25°C° 0 mm 3 m/S 746 mmHg 67%
    10:00 +26°C° 0 mm 3 m/S 746 mmHg 61%
    11:00 +27°C° 0 mm 3 m/S 746 mmHg 60%
    12:00 +27°C° 0 mm 3 m/S 746 mmHg 58%
    13:00 +27°C° 0 mm 3 m/S 746 mmHg 57%
    14:00 +27°C° 0.5 mm 3 m/S 746 mmHg 58%
    15:00 +27°C° 0.5 mm 3 m/S 746 mmHg 59%
    16:00 +27°C° 0.5 mm 3 m/S 746 mmHg 60%
    17:00 +26°C° 0.9 mm 3 m/S 746 mmHg 67%
    18:00 +25°C° 0.9 mm 2 m/S 746 mmHg 73%
    19:00 +24°C° 0.9 mm 2 m/S 746 mmHg 80%
    20:00 +21°C° 0.2 mm 2 m/S 746 mmHg 83%
    21:00 +20°C° 0.2 mm 2 m/S 747 mmHg 87%
    22:00 +19°C° 0.2 mm 3 m/S 747 mmHg 90%
    23:00 +19°C° 0 mm 3 m/S 747 mmHg 92%

    übermorgen, 22 Juni, Samstag

    Zeit Temperatur Niederschläge Wind Luftdruck Luftfeuchtigkeit
    00:00 +18°C° 0 mm 3 m/S 748 mmHg 94%
    01:00 +18°C° 0 mm 3 m/S 748 mmHg 96%
    02:00 +17°C° 0 mm 3 m/S 748 mmHg 96%
    03:00 +17°C° 0 mm 3 m/S 748 mmHg 97%
    04:00 +16°C° 0 mm 3 m/S 748 mmHg 98%
    05:00 +17°C° 0 mm 4 m/S 749 mmHg 94%
    06:00 +17°C° 0 mm 5 m/S 749 mmHg 90%
    07:00 +17°C° 0 mm 5 m/S 750 mmHg 86%
    08:00 +19°C° 0 mm 5 m/S 750 mmHg 81%
    09:00 +21°C° 0 mm 5 m/S 750 mmHg 75%
    10:00 +22°C° 0 mm 5 m/S 750 mmHg 69%
    11:00 +22°C° 0 mm 5 m/S 750 mmHg 67%
    12:00 +23°C° 0 mm 5 m/S 750 mmHg 65%
    13:00 +23°C° 0 mm 5 m/S 750 mmHg 62%
    14:00 +23°C° 0 mm 5 m/S 749 mmHg 61%
    15:00 +23°C° 0 mm 5 m/S 749 mmHg 60%
    16:00 +24°C° 0 mm 6 m/S 749 mmHg 59%
    17:00 +23°C° 0 mm 5 m/S 749 mmHg 64%
    18:00 +22°C° 0 mm 5 m/S 749 mmHg 69%
    19:00 +21°C° 0 mm 4 m/S 749 mmHg 74%
    20:00 +20°C° 0 mm 5 m/S 749 mmHg 74%
    21:00 +19°C° 0 mm 5 m/S 749 mmHg 74%
    22:00 +17°C° 0 mm 5 m/S 750 mmHg 74%
    23:00 +16°C° 0 mm 5 m/S 750 mmHg 75%

    23 Juni, Sonntag

    Zeit Temperatur Niederschläge Wind Luftdruck Luftfeuchtigkeit
    00:00 +16°C° 0 mm 5 m/S 750 mmHg 76%
    01:00 +15°C° 0 mm 5 m/S 750 mmHg 78%
    02:00 +15°C° 0 mm 5 m/S 750 mmHg 75%
    03:00 +15°C° 0 mm 5 m/S 750 mmHg 73%
    04:00 +14°C° 0 mm 4 m/S 750 mmHg 71%
    05:00 +14°C° 0.1 mm 4 m/S 750 mmHg 73%
    06:00 +14°C° 0.1 mm 4 m/S 750 mmHg 75%
    07:00 +13°C° 0.1 mm 4 m/S 750 mmHg 77%
    08:00 +15°C° 0.1 mm 4 m/S 751 mmHg 76%
    09:00 +17°C° 0.1 mm 4 m/S 751 mmHg 75%
    10:00 +18°C° 0.1 mm 4 m/S 751 mmHg 74%
    11:00 +19°C° 0 mm 4 m/S 751 mmHg 73%
    12:00 +19°C° 0 mm 4 m/S 751 mmHg 72%
    13:00 +20°C° 0 mm 5 m/S 751 mmHg 71%
    14:00 +21°C° 0 mm 5 m/S 751 mmHg 69%
    15:00 +21°C° 0 mm 4 m/S 751 mmHg 68%
    16:00 +21°C° 0 mm 4 m/S 750 mmHg 67%
    17:00 +21°C° 0 mm 4 m/S 751 mmHg 69%
    18:00 +21°C° 0 mm 4 m/S 751 mmHg 71%
    19:00 +21°C° 0 mm 4 m/S 751 mmHg 74%
    20:00 +19°C° 0 mm 3 m/S 751 mmHg 77%
    21:00 +18°C° 0 mm 3 m/S 752 mmHg 81%
    22:00 +17°C° 0 mm 3 m/S 752 mmHg 85%
    23:00 +16°C° 0 mm 3 m/S 752 mmHg 87%

    24 Juni, Montag

    Zeit Temperatur Niederschläge Wind Luftdruck Luftfeuchtigkeit
    00:00 +16°C° 0 mm 3 m/S 752 mmHg 88%
    01:00 +14°C° 0 mm 3 m/S 752 mmHg 89%
    02:00 +14°C° 0 mm 3 m/S 752 mmHg 89%
    03:00 +13°C° 0 mm 3 m/S 752 mmHg 90%
    04:00 +13°C° 0 mm 3 m/S 752 mmHg 90%
    05:00 +14°C° 0 mm 3 m/S 752 mmHg 86%
    06:00 +17°C° 0 mm 3 m/S 753 mmHg 82%
    07:00 +19°C° 0 mm 3 m/S 753 mmHg 79%
    08:00 +20°C° 0 mm 4 m/S 753 mmHg 75%
    09:00 +22°C° 0 mm 4 m/S 753 mmHg 71%
    10:00 +23°C° 0 mm 4 m/S 753 mmHg 68%
    11:00 +25°C° 0 mm 4 m/S 753 mmHg 67%
    12:00 +25°C° 0 mm 4 m/S 753 mmHg 66%
    13:00 +26°C° 0 mm 3 m/S 753 mmHg 65%
    14:00 +26°C° 0 mm 3 m/S 753 mmHg 65%
    15:00 +26°C° 0 mm 3 m/S 753 mmHg 64%
    16:00 +27°C° 0 mm 3 m/S 753 mmHg 64%
    17:00 +26°C° 0.1 mm 3 m/S 753 mmHg 69%
    18:00 +25°C° 0.1 mm 3 m/S 753 mmHg 74%
    19:00 +24°C° 0.1 mm 2 m/S 753 mmHg 78%
    20:00 +23°C° 0 mm 2 m/S 753 mmHg 83%
    21:00 +21°C° 0 mm 2 m/S 754 mmHg 88%
    22:00 +20°C° 0 mm 2 m/S 754 mmHg 92%
    23:00 +19°C° 0 mm 3 m/S 754 mmHg 93%

    25 Juni, Dienstag

    Zeit Temperatur Niederschläge Wind Luftdruck Luftfeuchtigkeit
    00:00 +19°C° 0 mm 3 m/S 754 mmHg 94%
    01:00 +19°C° 0 mm 3 m/S 754 mmHg 94%
    02:00 +19°C° 0 mm 3 m/S 754 mmHg 95%
    03:00 +18°C° 0 mm 2 m/S 754 mmHg 96%
    04:00 +18°C° 0 mm 2 m/S 754 mmHg 96%
    05:00 +19°C° 0 mm 3 m/S 754 mmHg 92%
    06:00 +21°C° 0 mm 3 m/S 754 mmHg 88%
    07:00 +22°C° 0 mm 3 m/S 754 mmHg 83%
    08:00 +24°C° 0 mm 3 m/S 754 mmHg 78%
    09:00 +25°C° 0 mm 3 m/S 754 mmHg 73%
    10:00 +27°C° 0 mm 3 m/S 755 mmHg 68%
    11:00 +27°C° 0 mm 3 m/S 754 mmHg 67%
    12:00 +27°C° 0 mm 3 m/S 754 mmHg 65%
    13:00 +28°C° 0 mm 3 m/S 754 mmHg 64%
    14:00 +28°C° 0 mm 3 m/S 754 mmHg 63%
    15:00 +28°C° 0 mm 3 m/S 754 mmHg 62%
    16:00 +28°C° 0 mm 2 m/S 753 mmHg 61%
    17:00 +28°C° 0 mm 3 m/S 754 mmHg 65%
    18:00 +27°C° 0 mm 3 m/S 754 mmHg 68%
    19:00 +26°C° 0 mm 3 m/S 754 mmHg 72%
    20:00 +25°C° 0 mm 3 m/S 754 mmHg 75%
    21:00 +24°C° 0 mm 2 m/S 754 mmHg 78%
    22:00 +23°C° 0 mm 2 m/S 754 mmHg 81%
    23:00 +21°C° 0 mm 2 m/S 754 mmHg 83%
    Mehr zeigen